Wind_Speed
54 57 60 61 62 62 61 62 62 63 63 62 62 61 62 63 63 63 63 64 66 69 68 67 69 67 64 63 63 63 64 66 69 69 68 68 70 68 65 62 60 58 57 56 57 58 59 56 53 51 51 51 51 50 48 48 48 44 42 44 46 46 45 43 40 40 42 41 42 42 45 48 46 42 39 35 33 34 35 35 35 34 35 34 32 28
55 58 61 61 61 61 62 63 63 63 63 62 61 62 62 63 64 64 65 65 67 71 71 68 70 68 63 63 64 65 66 68 71 71 69 71 73 72 69 66 63 61 61 60 59 59 60 58 55 53 53 53 53 53 52 51 51 50 45 42 46 49 50 49 45 42 43 43 42 43 45 49 50 45 42 39 34 35 36 37 37 36 35 35 34 30
56 58 60 61 61 61 63 63 63 63 63 62 61 62 64 65 66 67 66 66 68 73 74 72 73 70 64 63 64 66 68 70 73 71 71 72 74 75 74 71 69 68 67 65 62 60 58 57 55 54 55 55 54 54 55 54 54 55 53 47 46 50 51 53 51 46 45 46 43 45 48 51 52 49 45 43 38 38 40 39 39 37 35 35 35 32
56 58 60 61 62 63 63 62 62 63 63 63 62 64 66 66 69 71 69 68 69 73 76 79 80 75 67 65 66 67 69 72 74 73 74 76 76 77 76 74 73 71 68 66 64 63 61 61 59 56 57 58 58 57 56 56 57 57 58 55 51 51 51 53 56 51 48 49 48 47 50 52 54 53 50 47 43 42 42 42 41 39 36 34 35 34
56 58 60 61 63 63 62 61 62 63 64 63 63 65 68 68 70 73 73 74 73 72 75 83 87 81 73 71 71 69 70 73 74 75 78 78 76 78 77 75 74 72 69 68 67 67 66 66 64 60 58 61 61 60 59 58 59 60 61 60 56 54 53 53 57 55 51 53 54 52 51 52 55 56 54 50 47 44 43 41 40 39 37 36 35 35
57 59 61 61 63 63 63 62 62 65 66 65 65 67 69 71 72 75 77 79 80 76 75 82 90 86 78 76 76 75 76 76 76 76 79 79 79 79 77 75 75 74 73 72 70 68 68 68 67 64 60 63 64 64 63 62 61 63 64 63 60 58 59 59 59 57 54 55 57 56 53 51 53 56 56 52 47 43 40 38 37 37 38 38 37 35
58 61 62 63 64 63 63 63 64 66 67 67 67 68 70 73 76 78 79 82 84 83 79 80 87 89 86 82 80 80 80 79 78 80 83 83 82 80 78 77 76 75 73 73 72 70 70 71 71 69 65 65 67 66 65 65 64 65 66 66 64 64 64 63 62 60 57 57 58 58 55 50 51 57 58 54 49 44 40 38 38 38 39 39 38 37
60 62 63 64 64 64 64 64 65 67 68 69 70 71 73 75 78 79 81 83 84 85 84 80 83 90 92 88 85 82 81 81 83 85 87 86 85 83 81 79 77 75 73 72 72 71 72 72 72 73 72 68 68 68 68 68 68 67 69 68 65 65 66 67 67 63 59 59 60 59 57 52 50 57 60 55 52 48 43 41 41 40 40 40 39 38
63 64 64 65 66 66 66 66 67 69 70 71 73 74 75 77 79 80 81 83 83 86 86 82 83 91 94 91 87 84 83 87 89 89 89 87 86 86 83 80 79 77 74 72 71 71 70 70 70 73 75 73 69 68 70 72 72 69 70 68 62 60 63 67 68 64 60 60 61 59 59 54 50 58 62 57 53 51 46 44 43 43 43 42 41 41
65 66 66 67 68 68 68 68 70 72 73 74 76 76 77 78 79 80 82 83 84 87 86 83 85 91 95 94 88 86 89 92 91 90 89 88 87 86 83 80 79 78 75 73 71 69 68 67 68 70 72 74 72 70 70 71 73 73 71 69 63 59 61 66 68 66 61 60 61 61 60 56 52 58 64 59 55 53 48 46 46 45 45 44 43 43
66 67 67 68 69 70 70 71 73 73 74 76 77 77 78 78 80 81 83 84 84 84 82 83 85 90 97 95 87 88 92 92 91 91 91 91 88 84 80 77 77 76 75 72 69 67 65 64 66 69 70 70 71 72 71 68 67 70 73 72 66 60 60 64 67 67 63 60 60 61 61 59 54 58 65 61 57 55 50 48 48 47 47 45 44 43
67 67 68 68 70 72 73 73 74 74 75 76 76 77 80 82 83 84 84 84 85 85 82 83 85 90 96 95 91 93 93 92 93 93 93 92 87 81 78 77 76 75 73 71 68 63 61 62 63 67 69 70 72 73 72 68 64 66 69 69 65 61 60 63 65 66 64 60 60 61 61 61 57 57 64 64 59 56 53 49 48 47 47 46 44 44
70 70 70 70 72 75 76 75 75 75 75 76 77 79 83 86 87 88 88 86 87 86 82 82 86 91 94 95 95 96 95 95 94 93 93 91 85 81 78 77 76 74 72 69 68 65 63 65 66 67 68 71 75 76 78 78 75 71 66 64 63 60 61 63 63 64 63 60 60 61 61 63 61 59 64 66 62 58 55 51 49 49 48 47 46 45
73 74 74 73 73 75 77 77 78 78 77 79 80 82 85 86 86 88 89 89 89 88 82 81 86 92 94 94 95 97 97 98 96 94 92 86 81 78 74 73 74 74 71 70 71 69 66 66 67 69 71 76 77 77 81 84 84 80 71 66 65 61 62 64 63 64 62 59 61 64 62 63 64 62 63 67 65 60 57 54 52 51 50 49 47 45
74 75 74 73 75 77 78 78 78 79 79 79 80 83 84 84 83 85 88 91 93 92 88 85 87 91 93 94 97 100 100 99 96 94 91 87 83 78 73 73 76 76 73 73 74 74 71 69 68 68 70 76 78 78 81 82 83 82 72 65 65 61 61 65 63 63 63 59 61 65 64 63 64 63 63 67 68 63 59 57 54 53 51 49 48 46
74 73 73 72 75 78 77 76 78 79 79 79 80 82 83 83 83 85 88 92 93 95 95 90 88 90 93 95 99 100 100 98 96 95 92 89 84 80 78 78 77 75 73 71 70 71 72 71 71 72 72 73 75 78 81 81 80 80 70 62 63 62 63 66 63 62 64 60 60 63 64 62 62 64 64 67 71 68 63 60 57 55 52 50 48 47
73 72 72 71 72 76 77 76 78 79 78 79 81 81 83 84 85 86 90 93 93 95 97 93 91 94 96 98 99 98 99 98 97 96 93 89 85 82 80 77 75 73 70 66 63 64 66 66 67 70 74 76 77 80 83 83 80 79 71 63 63 62 64 68 64 62 64 62 61 64 65 62 61 63 64 67 73 72 66 63 59 56 54 51 50 49
75 72 72 72 71 74 76 76 78 79 78 80 82 82 84 86 86 87 91 95 94 95 96 92 93 99 101 101 100 98 99 99 97 95 92 88 84 80 77 74 73 72 67 63 62 64 65 64 62 61 61 64 69 73 78 81 80 79 75 67 64 62 62 68 66 62 63 63 64 65 65 64 62 63 65 67 74 75 69 66 62 58 55 52 51 51
76 75 75 75 72 72 73 75 78 78 77 80 82 83 86 88 89 88 89 94 94 93 94 92 95 101 101 100 102 100 100 99 96 93 89 85 81 77 75 72 70 69 66 63 62 62 62 61 60 57 53 51 54 57 61 70 75 78 78 72 68 62 59 64 66 63 63 65 65 63 63 66 64 64 66 67 73 77 72 69 65 61 57 54 52 52
75 78 78 75 73 72 72 73 76 77 77 80 82 84 86 87 88 87 88 91 89 88 92 93 96 102 100 99 102 100 98 96 92 89 85 80 76 74 73 70 68 66 63 61 59 57 57 58 57 56 51 47 47 48 47 55 64 70 74 74 71 63 56 59 64 62 60 65 68 63 61 67 67 66 67 67 71 78 75 72 69 64 60 56 54 53
74 77 78 75 72 72 72 73 74 76 78 80 81 84 86 87 88 87 87 86 84 87 92 92 97 104 102 98 99 96 94 91 88 85 81 76 73 70 68 67 66 63 60 58 55 53 55 57 57 56 50 44 44 45 42 45 52 57 64 70 71 65 55 55 61 60 57 61 67 64 63 69 70 68 69 68 70 77 79 75 73 69 63 59 57 55
73 75 77 76 74 73 72 72 73 75 77 79 81 84 86 86 87 87 88 86 84 89 93 92 99 107 103 96 95 93 92 88 84 81 77 73 70 66 64 64 63 60 57 55 53 54 57 58 58 57 50 43 42 43 41 41 45 47 51 60 68 66 58 54 58 59 57 58 65 66 65 70 72 70 70 70 69 75 81 80 76 72 67 63 60 57
73 74 77 77 75 74 73 71 72 74 76 77 80 82 83 84 83 84 89 90 88 91 93 93 100 105 100 93 92 91 88 84 81 79 76 72 68 64 63 61 59 58 55 52 52 54 56 57 59 58 51 45 42 42 41 40 42 43 43 49 58 63 60 56 56 58 58 59 65 68 67 69 73 72 71 71 68 72 81 84 79 75 71 66 63 60
72 75 77 78 76 73 71 71 72 74 76 78 79 80 82 81 80 82 86 87 89 92 92 94 101 104 98 92 90 88 86 83 81 79 75 72 67 64 62 58 57 57 54 50 51 52 54 57 59 57 52 46 43 43 43 42 43 42 41 42 48 55 60 59 56 57 59 61 66 68 67 68 72 74 73 72 69 68 77 84 81 77 73 68 66 64
73 75 77 78 79 77 73 72 73 73 75 79 80 81 80 77 76 80 82 84 88 90 90 94 102 103 97 92 90 88 86 85 82 78 73 69 65 63 61 59 58 56 52 49 49 50 53 57 58 57 53 47 44 44 44 44 44 43 42 40 40 48 57 61 58 56 57 62 66 66 64 66 71 74 75 74 70 66 72 81 81 77 75 71 68 66
73 74 75 76 79 80 79 78 77 77 79 81 82 81 77 73 75 80 81 84 88 90 91 95 99 100 97 91 88 88 86 84 82 76 70 66 63 61 59 60 58 55 53 51 50 52 55 57 58 57 54 48 44 46 46 45 44 43 42 38 35 40 51 59 60 58 57 60 65 65 62 64 69 73 75 74 71 67 69 78 81 78 76 73 69 68
73 74 74 74 76 78 81 81 80 81 83 84 84 80 75 73 76 78 80 84 88 90 92 94 93 95 94 89 87 88 85 83 80 75 69 64 62 60 59 58 56 54 55 55 55 55 57 59 58 57 55 48 44 45 47 47 44 43 41 37 34 35 42 54 59 60 60 58 62 65 63 63 68 72 74 74 72 69 69 76 81 79 77 76 72 69
74 74 73 74 75 77 80 81 80 81 83 84 83 78 74 74 76 77 79 83 85 88 93 93 88 89 89 86 86 87 85 83 79 73 67 63 61 61 59 58 55 55 57 57 58 58 58 59 58 56 55 49 43 42 45 47 44 43 41 36 35 34 37 48 57 62 63 58 58 63 63 64 69 72 74 75 74 72 70 73 80 80 77 77 74 70
73 74 74 74 75 77 80 80 80 80 82 83 79 74 73 75 76 76 77 80 83 86 90 90 85 84 85 84 84 85 84 82 76 70 65 62 61 61 61 59 58 56 56 56 56 56 55 55 55 56 55 51 44 41 42 47 45 43 41 37 36 35 34 43 53 60 64 59 55 59 62 65 68 72 75 75 75 75 72 71 77 81 78 77 75 70
72 73 74 76 76 76 78 79 80 80 81 81 75 71 73 76 75 75 76 79 82 84 85 85 83 82 82 81 81 82 81 76 70 66 63 61 61 62 61 60 59 56 54 55 56 56 54 53 54 55 56 54 48 42 41 46 47 44 42 40 38 36 34 39 49 57 63 60 54 55 60 65 69 71 75 76 76 76 74 71 76 81 80 76 74 71
72 73 74 76 77 76 75 77 78 78 79 78 73 71 73 75 74 74 76 79 82 83 82 81 82 82 79 78 79 79 76 69 64 63 61 59 61 63 62 61 60 59 59 59 60 59 57 55 55 55 56 55 51 44 40 43 48 45 41 42 41 36 34 39 45 53 60 60 55 53 57 64 70 72 74 77 78 77 75 73 75 81 80 76 74 72
71 73 73 76 78 76 74 75 76 76 76 74 70 70 72 73 72 73 76 79 80 81 81 79 80 81 78 77 77 75 70 63 59 61 60 59 62 63 63 63 62 62 63 61 61 61 59 57 56 56 54 52 50 44 38 40 47 46 41 43 43 38 36 39 43 50 57 59 58 55 54 61 70 73 73 76 79 79 76 75 77 81 81 77 74 73
70 72 73 76 78 77 74 74 75 74 73 69 66 68 71 71 71 72 75 76 76 76 77 77 78 78 76 74 73 71 67 58 54 57 60 62 64 64 61 62 62 60 59 59 58 59 59 59 58 58 55 52 49 43 36 36 44 47 42 43 45 40 39 42 45 51 56 58 58 56 54 58 68 73 73 74 78 79 77 77 78 81 81 77 74 73
70 71 73 75 78 78 74 72 73 72 70 66 64 67 70 70 70 72 74 74 72 71 72 73 74 72 69 68 69 70 68 59 51 53 60 63 65 64 60 58 59 58 57 58 58 58 59 60 60 60 59 56 52 45 36 34 41 47 44 43 44 41 41 44 46 51 56 57 55 55 54 57 65 73 74 74 76 79 80 79 80 82 81 77 75 74
70 71 72 73 76 76 71 69 70 71 68 64 62 65 68 68 69 71 73 72 69 69 70 71 71 67 63 63 65 67 68 60 47 46 56 62 60 61 62 60 60 61 61 62 63 62 62 62 61 60 58 55 51 45 38 34 40 47 46 44 43 40 40 44 45 48 55 56 53 53 54 57 63 71 74 75 75 77 81 81 82 83 82 78 76 74
68 69 70 72 73 71 67 66 69 71 68 62 60 64 67 67 68 72 73 70 65 66 69 69 68 65 60 60 62 63 65 62 46 35 46 60 60 58 62 63 63 65 66 66 67 66 66 64 62 58 55 50 46 43 39 35 39 47 47 44 42 39 40 44 44 46 52 54 52 52 55 57 63 69 73 75 75 75 79 82 82 84 83 79 76 75
65 66 67 69 68 65 64 66 69 72 67 60 59 64 67 68 69 72 74 70 65 64 67 67 66 63 59 57 57 58 62 64 51 33 36 53 61 61 63 65 66 68 67 66 65 64 64 63 60 57 53 48 45 42 39 35 37 43 46 44 41 39 40 44 46 47 50 52 51 53 55 56 61 67 71 73 74 73 75 80 83 85 83 79 75 75
63 63 64 66 64 61 64 68 70 71 67 59 58 63 65 66 68 71 73 71 67 64 65 65 63 61 58 58 58 58 62 66 59 46 43 51 58 62 65 66 67 69 69 68 67 65 63 61 59 56 52 47 44 41 38 36 36 40 44 43 40 39 41 44 45 46 48 51 52 53 54 53 56 64 68 70 72 72 73 78 82 85 83 79 74 72
61 60 60 62 61 60 65 68 69 70 66 59 60 63 65 66 67 70 73 72 67 65 64 64 62 58 58 61 62 62 64 67 65 58 56 57 58 62 65 66 66 68 70 72 73 71 67 64 60 56 51 46 42 39 36 35 34 36 41 43 40 39 42 44 45 45 48 51 53 53 51 49 49 56 64 67 68 71 73 76 79 81 81 79 74 71
60 57 57 59 58 59 63 66 67 66 62 59 62 64 65 67 68 71 74 72 69 67 66 64 62 60 60 63 63 60 62 69 72 67 63 63 63 63 64 66 67 69 72 74 73 69 65 62 59 56 50 44 40 37 34 33 33 32 37 41 39 39 42 44 45 46 49 53 55 53 50 48 46 49 58 64 66 69 72 74 76 76 75 76 74 71
57 54 53 55 56 57 61 65 65 62 57 59 63 64 65 68 69 70 72 72 71 70 69 66 63 61 61 63 63 61 61 67 73 72 67 66 65 63 63 64 65 69 73 72 68 64 61 57 55 53 47 41 38 34 31 32 31 28 34 39 37 38 42 45 47 48 50 54 55 53 50 50 48 49 55 61 65 68 70 72 72 71 70 71 72 71
53 50 49 51 54 56 60 64 64 60 56 60 63 62 62 68 70 69 69 70 71 70 70 67 62 60 61 61 60 63 64 65 68 70 67 65 65 63 63 63 64 69 73 68 60 59 59 54 48 46 43 39 36 31 29 30 28 26 34 38 36 39 43 45 47 48 51 54 54 52 51 51 51 51 54 58 63 66 68 68 68 68 69 68 69 70
49 47 47 49 53 56 60 62 62 59 58 60 62 61 61 66 70 70 69 70 70 70 71 69 62 58 61 62 60 62 65 65 66 67 65 64 64 62 62 62 64 71 74 67 58 56 56 50 42 37 36 36 35 30 27 28 25 24 34 36 34 38 42 44 46 48 51 53 52 52 53 53 52 52 52 55 60 63 64 64 63 65 67 67 66 68
45 44 48 50 51 56 61 61 58 57 57 59 60 61 62 66 69 70 70 71 71 70 72 70 62 57 61 64 64 65 68 66 65 65 64 63 61 60 61 62 64 70 73 67 58 56 54 46 38 31 26 30 33 29 25 25 22 24 34 36 34 38 41 43 46 47 49 49 48 50 54 55 53 51 50 55 59 57 58 61 61 61 64 65 65 66
42 43 50 51 50 56 61 58 55 56 57 57 59 60 62 65 67 68 69 70 71 70 71 71 64 57 59 64 65 67 69 66 64 66 68 67 62 60 61 61 62 67 71 63 55 53 50 42 35 29 21 20 25 25 24 22 19 25 35 37 37 39 40 42 45 46 45 44 45 50 54 56 54 49 48 54 57 52 53 58 60 60 62 64 65 65
39 42 50 52 52 57 58 53 54 58 58 57 59 60 61 64 66 68 68 68 69 69 70 69 65 59 59 64 66 66 67 66 66 69 71 69 64 60 59 57 58 63 66 58 48 46 44 37 31 27 19 13 16 19 21 20 19 26 35 37 37 36 36 39 42 42 40 40 43 49 52 54 52 47 46 52 53 49 50 54 56 57 60 62 63 64
37 43 51 53 54 58 56 52 54 56 56 57 59 59 59 60 63 66 67 67 67 68 68 67 63 59 58 62 66 66 66 68 69 69 70 69 64 59 55 52 54 60 62 54 44 40 38 32 27 23 17 11 12 16 18 17 19 27 34 35 34 32 32 36 39 38 36 37 42 46 49 51 49 45 45 50 51 46 46 48 50 53 57 60 61 61
38 45 52 54 55 56 55 54 56 55 53 55 59 60 60 59 60 62 65 66 66 66 68 66 61 55 55 60 63 63 66 71 71 70 70 68 61 55 51 49 52 57 58 50 41 36 33 28 24 20 16 12 12 15 17 16 18 27 32 32 30 29 30 34 36 34 33 36 40 43 47 50 48 43 44 49 49 47 44 43 44 47 51 56 59 58
40 47 53 56 56 54 54 56 58 56 53 52 55 59 61 61 61 61 63 65 65 64 65 65 61 54 52 56 60 60 63 69 71 72 73 67 54 48 47 47 50 55 55 49 44 38 31 24 21 19 17 14 14 15 17 15 18 25 28 28 26 25 26 31 33 32 31 34 38 40 45 49 47 44 45 47 47 46 44 41 39 41 44 51 56 56
42 49 54 56 56 54 55 57 59 58 56 53 53 56 58 60 62 62 63 64 64 63 63 62 58 53 50 53 59 59 61 66 68 71 74 66 52 48 48 47 48 51 51 50 51 46 34 23 17 14 14 14 15 15 13 12 17 22 23 22 21 22 24 28 31 30 31 35 38 39 43 47 45 44 47 48 46 44 42 39 36 36 38 44 50 53
45 52 53 54 55 55 56 58 59 60 60 57 56 56 58 60 62 62 63 64 63 63 63 61 56 50 47 50 56 58 60 63 65 69 70 62 52 50 49 48 50 50 49 52 54 46 32 20 12 8 8 8 8 7 5 10 15 16 16 16 16 18 22 26 29 31 34 37 39 39 41 44 43 43 45 48 47 43 42 40 37 35 36 39 45 49
Wind_Direction
316 313 312 314 315 317 318 318 319 319 318 319 318 318 318 317 317 316 316 315 313 312 311 310 308 308 312 314 313 314 315 315 315 315 314 312 311 309 306 305 304 301 299 298 296 296 296 294 290 286 282 280 277 274 271 266 262 256 256 264 270 274 273 267 258 251 249 251 254 251 248 245 245 247 244 238 241 245 247 248 246 245 246 248 248 244
315 313 312 314 315 317 318 319 319 318 318 318 318 318 317 317 316 316 315 314 313 311 310 310 307 308 313 315 315 318 318 316 316 315 313 311 310 308 306 305 305 304 301 299 297 294 295 294 290 284 279 275 273 272 271 268 265 260 255 258 263 268 273 271 261 250 245 245 249 250 247 244 242 243 241 236 235 240 243 243 242 241 241 243 243 242
315 313 313 315 316 317 318 318 318 317 318 318 319 318 317 317 316 314 314 313 313 312 312 312 309 310 314 314 316 319 320 318 317 317 314 311 309 307 306 306 305 305 303 301 298 294 293 292 289 283 275 269 264 264 266 267 265 261 257 255 257 259 266 270 263 253 245 240 240 245 246 243 240 239 239 235 229 231 235 235 235 234 233 236 238 238
313 312 312 314 315 316 316 317 317 317 317 318 319 318 317 318 317 315 315 312 311 312 315 316 313 313 314 314 317 321 321 319 318 317 313 310 309 307 306 306 305 304 302 300 298 295 293 291 288 282 273 267 261 257 258 260 261 261 259 256 255 254 256 263 263 255 247 240 235 236 241 241 239 237 237 233 225 224 229 230 232 230 227 228 231 232
313 311 312 314 314 315 316 317 317 316 316 317 319 319 319 320 318 318 318 315 312 311 315 318 316 316 316 316 321 324 321 320 319 315 311 310 308 306 306 306 305 303 301 300 298 294 292 290 287 280 270 263 260 257 254 253 254 257 258 255 252 252 253 256 256 252 245 242 238 233 235 238 236 234 234 231 225 222 225 229 233 236 234 230 228 228
312 311 313 314 314 315 317 318 317 316 316 317 318 319 319 320 319 319 320 319 316 313 314 318 319 318 317 319 323 324 322 320 318 312 310 310 307 305 305 304 303 301 300 300 298 293 291 289 285 278 266 255 252 251 250 249 249 252 255 252 249 251 253 254 252 247 242 241 240 236 233 234 233 232 233 233 231 228 228 232 236 240 241 237 232 228
312 312 314 314 315 316 317 318 318 317 317 317 317 317 318 320 320 321 322 320 320 317 316 321 321 319 319 320 322 324 322 319 315 311 311 310 308 306 304 302 301 298 296 298 298 293 289 286 282 276 267 255 247 245 245 244 244 247 250 250 250 250 252 252 250 245 240 239 239 236 234 233 230 229 231 233 234 231 229 231 232 235 238 237 233 229
313 313 314 314 316 317 317 318 317 317 317 317 318 318 319 320 320 322 321 320 321 319 319 323 321 318 319 321 323 324 321 317 314 312 312 311 309 308 305 303 301 298 295 296 295 293 288 283 277 274 269 260 251 245 244 243 242 243 244 246 249 249 248 250 248 243 239 239 238 235 233 234 230 225 228 232 232 230 226 225 226 228 232 233 231 228
313 313 314 314 316 317 317 318 317 317 318 319 320 320 320 319 320 321 320 319 320 318 320 324 322 319 319 320 324 324 320 317 316 315 314 312 310 309 307 305 303 299 297 295 294 292 286 279 271 268 267 264 258 251 247 245 243 242 242 244 247 245 244 244 244 241 238 237 239 237 232 232 230 224 225 230 231 228 223 220 221 223 226 230 229 226
312 313 314 315 316 316 318 318 318 319 320 321 321 320 319 318 319 320 318 318 318 318 321 324 323 320 318 322 327 324 320 319 318 316 314 311 309 308 305 302 300 298 295 293 292 289 284 277 269 265 264 262 261 258 255 251 248 245 243 245 247 245 241 239 239 239 237 234 237 238 234 232 229 224 222 225 227 226 222 218 219 221 222 226 229 227
312 313 313 314 315 316 317 318 318 319 320 321 321 320 318 317 317 317 316 317 317 318 322 324 324 320 319 325 328 322 320 319 316 314 311 309 308 304 300 298 297 295 293 292 291 288 285 278 270 266 264 261 261 261 262 260 256 250 246 245 248 247 242 237 237 239 237 234 234 237 237 234 230 224 220 222 224 225 222 219 219 221 222 225 228 229
310 310 311 312 314 315 316 318 318 319 320 321 321 319 318 317 316 315 315 316 317 320 324 325 323 319 320 325 324 320 319 316 313 312 310 309 306 302 298 297 296 295 293 291 290 288 285 280 274 268 264 261 260 260 261 260 257 254 249 247 248 246 242 237 235 238 239 235 234 236 237 234 231 224 219 219 222 224 224 222 221 223 224 225 227 229
307 308 309 312 314 316 317 318 317 317 320 320 320 320 320 319 318 317 318 318 318 321 325 326 322 318 321 323 321 319 318 314 312 310 309 307 304 302 300 298 297 296 293 291 289 287 283 279 274 269 265 263 260 258 258 258 256 254 252 251 250 245 242 238 234 237 239 236 234 236 236 234 231 224 218 217 219 222 224 224 223 222 223 224 225 227
306 308 311 315 316 316 317 318 317 317 319 319 320 321 320 321 319 319 320 320 320 321 324 325 320 318 323 323 320 318 316 313 311 309 307 305 303 303 302 298 298 297 294 292 290 288 285 281 274 267 266 266 263 259 258 259 259 257 255 254 252 246 241 236 232 235 237 236 234 235 235 234 231 225 218 216 217 219 223 224 223 221 222 224 226 228
306 309 313 317 318 317 317 318 317 319 319 319 320 320 319 320 319 318 320 321 322 321 323 324 319 320 325 323 319 317 315 312 309 307 305 304 304 304 302 299 297 295 292 290 287 284 283 280 276 269 266 266 264 260 260 261 261 260 257 254 250 246 240 234 230 231 234 234 233 232 233 233 231 227 221 216 216 217 219 222 223 222 221 222 225 228
307 310 313 316 318 317 318 319 319 320 319 319 320 318 318 319 318 318 319 321 322 320 322 322 319 322 326 323 320 317 314 312 308 307 306 306 309 308 304 302 300 297 294 292 287 284 281 278 274 270 266 265 262 260 261 263 262 260 258 254 248 245 240 232 227 228 231 232 232 231 231 230 230 229 223 217 215 215 216 219 221 221 221 221 225 228
308 310 313 315 317 317 318 319 319 319 320 319 319 318 318 319 318 318 319 322 321 318 320 319 317 323 326 323 322 317 314 313 309 308 309 311 312 310 308 307 306 304 302 300 297 293 290 285 278 271 265 263 262 262 262 262 262 258 256 254 248 243 239 232 226 226 230 230 229 231 231 229 230 231 227 220 216 214 215 216 219 220 220 221 223 227
309 311 314 315 317 317 317 318 317 318 320 319 318 318 318 318 318 319 320 322 320 316 317 316 317 324 325 323 321 316 313 313 310 310 312 314 314 313 312 312 310 310 309 308 306 303 300 296 289 281 272 265 263 263 262 261 260 257 255 254 248 242 237 231 226 226 230 230 227 229 230 228 230 232 230 224 217 214 213 214 216 217 218 220 222 224
309 312 314 315 317 317 317 317 316 317 319 317 317 318 318 318 318 319 321 321 318 314 315 315 317 324 326 322 319 315 313 313 313 314 316 316 317 315 315 314 312 313 313 314 313 311 309 306 300 293 284 275 268 266 264 261 259 258 257 255 249 243 235 229 226 226 231 231 227 228 229 226 228 232 233 229 220 214 213 213 214 215 215 218 221 222
311 313 313 314 316 317 316 315 314 316 316 315 316 317 317 318 318 319 321 321 317 312 313 313 315 323 326 321 317 315 315 315 316 318 318 317 317 315 315 315 313 314 316 317 318 319 320 316 310 303 293 283 276 274 270 263 259 259 258 256 250 245 235 227 227 227 231 231 227 227 229 224 225 230 232 232 224 216 213 212 213 214 213 214 218 220
312 312 312 313 316 316 316 315 314 315 315 315 316 316 316 318 317 318 320 319 315 312 314 312 313 322 325 319 316 316 315 316 317 318 317 316 314 313 313 313 313 315 317 318 321 324 326 324 320 314 302 289 283 281 277 267 262 261 260 257 252 247 237 228 226 228 231 231 227 228 229 224 224 228 230 231 228 220 214 213 212 212 212 212 214 217
312 312 312 314 316 316 315 315 315 316 316 316 316 316 317 318 318 318 318 317 315 315 315 311 312 323 325 318 316 316 315 317 317 316 315 314 313 312 312 312 313 316 316 318 320 322 323 324 324 323 311 295 288 287 282 272 267 266 264 260 254 248 241 231 226 227 230 229 227 228 229 225 223 226 228 229 229 223 216 213 212 211 210 210 211 214
311 311 312 314 316 316 315 315 316 316 316 316 316 316 316 317 318 318 316 317 317 316 316 311 312 322 324 317 315 316 315 315 315 314 315 314 313 312 312 313 314 314 315 317 317 316 318 318 321 324 317 301 291 289 284 274 270 271 268 263 258 250 243 235 228 225 227 227 225 227 228 226 224 226 228 229 229 227 219 213 213 212 209 208 209 211
310 311 312 314 315 315 315 315 316 316 316 315 315 315 316 317 318 316 315 316 316 316 316 312 312 320 321 315 314 315 313 313 314 316 317 314 313 313 312 313 313 314 316 317 316 314 314 314 315 319 319 306 290 285 283 277 272 271 268 266 263 254 245 239 231 225 224 224 224 226 226 226 226 226 227 228 230 230 221 214 213 213 210 208 207 209
310 312 313 314 315 314 314 315 315 315 314 314 314 315 317 318 317 314 315 316 315 314 314 312 313 317 317 314 314 314 312 314 317 319 318 314 313 313 312 312 312 314 316 317 316 313 311 312 312 314 318 311 291 280 279 277 272 269 267 265 264 258 249 243 235 226 222 221 222 225 225 224 226 226 226 227 228 230 223 215 213 213 211 209 207 207
310 312 313 314 314 314 315 316 316 315 315 315 315 316 318 318 316 315 317 317 315 314 314 314 314 314 315 315 315 314 314 316 319 320 317 314 313 314 314 313 313 315 315 314 313 311 309 310 311 310 313 313 299 282 274 273 271 266 264 262 259 256 252 246 238 228 223 220 220 224 225 224 225 225 225 225 226 229 225 217 214 214 213 211 208 206
309 311 312 312 312 313 314 315 316 316 316 316 316 316 318 319 318 318 319 318 316 314 314 315 314 313 315 316 315 315 315 317 319 319 316 315 316 316 315 315 317 318 316 313 311 310 308 307 309 308 308 311 307 291 274 269 268 263 260 258 251 248 249 247 239 230 223 220 219 222 223 225 227 226 225 223 223 227 226 219 216 214 214 213 210 207
309 310 311 310 311 312 312 313 314 315 316 316 316 317 319 319 319 320 320 319 316 313 313 316 316 314 315 316 315 316 316 317 319 317 315 316 317 316 316 318 320 319 316 313 311 309 307 305 305 307 307 308 308 299 279 265 263 261 257 252 244 239 242 245 240 230 223 220 219 220 221 223 227 228 226 223 221 224 226 222 217 215 214 214 212 209
308 309 309 309 310 311 312 313 314 315 316 316 316 317 318 318 320 322 320 318 314 312 314 318 316 314 314 315 315 316 317 319 319 316 316 317 316 316 318 319 319 317 316 314 311 308 305 304 304 306 307 306 306 304 284 263 257 258 255 247 239 233 233 241 241 231 224 220 218 219 220 221 224 227 227 225 222 222 225 224 218 215 215 215 213 211
308 309 308 308 310 312 312 313 314 316 316 316 316 316 317 318 320 320 318 316 313 312 316 317 313 311 314 315 316 317 318 320 319 317 317 316 316 318 319 318 318 316 315 314 313 310 307 305 304 304 305 305 304 305 291 266 253 254 254 245 237 231 227 235 240 234 226 221 216 217 219 219 221 223 225 227 226 223 224 224 219 215 215 215 214 213
307 308 308 307 309 312 312 312 314 316 316 316 315 315 316 317 319 318 317 316 314 313 316 315 311 312 316 318 318 318 320 323 321 318 317 317 319 321 319 318 318 317 316 315 314 314 311 308 306 303 303 303 301 302 297 273 255 252 252 245 238 233 227 230 237 237 231 223 216 215 217 218 219 221 222 225 227 225 224 224 219 215 214 214 214 214
306 306 307 306 308 311 312 312 314 315 316 315 314 314 315 316 316 316 317 317 314 314 317 315 313 316 321 321 319 319 321 324 322 318 317 319 320 319 317 316 316 316 316 316 316 317 316 313 310 306 303 303 302 301 299 281 260 251 250 245 238 233 228 227 233 236 233 226 219 216 217 218 218 219 219 220 223 225 225 224 219 214 213 214 213 215
304 305 306 306 308 310 312 313 313 315 316 315 313 313 315 314 314 315 318 317 315 316 318 316 316 321 324 322 320 319 321 324 323 319 319 320 319 317 315 314 314 314 315 316 316 316 315 313 311 309 306 305 306 302 298 286 266 252 248 244 238 233 227 226 231 236 233 229 223 217 217 220 218 217 217 216 218 221 223 223 218 214 213 214 213 215
304 305 306 307 309 311 312 313 313 316 317 315 314 315 315 314 314 316 319 319 318 319 319 316 318 323 324 321 320 320 320 322 324 320 319 321 319 316 315 314 314 314 314 313 312 310 310 310 308 308 307 306 306 302 296 286 267 253 246 241 236 232 226 226 232 235 232 230 226 217 216 221 219 216 215 215 216 218 219 220 217 214 213 214 214 215
304 306 307 309 310 311 313 313 314 316 317 317 318 317 314 313 315 316 319 322 321 320 319 318 321 324 324 320 319 319 318 319 324 324 321 321 320 317 317 316 314 314 313 313 312 311 311 311 309 309 309 307 305 301 294 285 267 253 244 237 233 230 225 224 229 233 231 230 225 217 216 221 220 216 215 215 216 217 217 217 215 214 214 214 214 215
305 306 308 310 310 310 312 313 313 315 319 321 321 317 313 314 317 316 319 325 326 322 321 322 323 324 322 319 318 318 318 318 322 326 323 321 320 317 316 315 314 314 314 313 312 311 311 311 310 310 309 307 304 298 292 286 270 256 245 235 230 227 223 222 224 228 229 227 222 217 216 220 221 217 215 215 216 217 217 216 215 215 216 215 214 215
306 307 309 310 310 310 311 312 313 315 321 325 322 316 313 316 320 317 318 326 329 325 324 325 324 322 319 317 318 319 318 318 320 325 322 318 318 318 316 314 313 313 312 311 310 310 310 310 309 308 308 306 304 298 291 285 273 259 246 235 230 226 222 220 222 226 227 224 220 216 215 217 219 219 217 217 217 217 218 218 217 217 217 217 216 216
306 307 309 308 309 310 311 313 313 316 323 326 321 316 315 318 320 316 318 327 330 326 324 325 323 321 318 319 322 322 318 315 317 321 320 316 315 316 314 313 313 314 314 313 312 311 310 309 307 305 304 304 303 298 290 286 278 261 245 234 230 226 221 220 221 224 226 222 219 216 214 215 219 220 219 218 217 218 218 218 219 219 219 218 218 218
304 306 307 307 309 311 311 311 313 318 325 326 319 316 317 318 319 318 320 327 329 325 324 325 323 323 321 322 325 323 318 317 317 318 320 318 316 315 315 314 315 315 316 316 314 312 310 308 305 302 300 299 299 296 290 287 282 264 242 231 228 225 221 218 218 221 224 222 219 218 215 214 219 223 221 219 218 219 219 218 219 219 219 218 219 219
304 304 306 307 309 310 309 309 314 321 326 322 316 318 321 320 321 321 322 326 328 326 327 328 328 326 324 324 325 323 322 323 323 322 324 323 320 319 319 318 318 318 319 318 315 312 308 305 302 298 295 292 292 292 288 284 281 265 239 227 226 224 220 218 217 219 223 221 220 221 218 214 216 221 222 221 220 219 219 219 219 219 218 218 218 218
302 303 306 307 307 308 308 309 315 324 325 317 316 322 324 321 320 321 323 326 329 328 328 330 330 327 324 325 326 324 323 325 326 326 327 326 323 321 320 320 323 326 325 321 317 313 308 304 299 293 290 286 283 286 283 279 277 260 232 222 223 223 221 219 218 220 223 222 221 223 221 214 213 217 220 222 221 220 220 220 220 219 218 217 217 217
300 301 306 306 305 306 308 309 316 323 322 316 319 325 323 318 318 321 325 328 328 327 328 330 331 327 324 325 325 324 325 325 325 326 327 326 324 321 322 326 331 333 330 325 321 319 315 312 305 294 285 279 277 280 277 273 271 248 222 216 220 222 221 220 219 221 224 223 222 224 221 215 213 215 218 222 224 221 220 221 221 219 218 218 217 217
298 301 305 304 303 306 308 311 318 321 319 318 320 322 321 318 319 323 328 328 328 328 328 329 330 327 325 325 324 324 326 326 324 324 325 325 323 321 325 330 334 336 335 331 326 324 322 322 318 304 286 273 271 274 271 268 264 233 211 211 219 222 220 219 219 221 223 222 223 224 220 215 214 215 216 220 224 224 221 220 220 218 217 218 218 218
297 302 303 302 303 306 308 314 319 318 316 318 320 320 321 321 321 324 327 328 328 328 327 327 329 327 325 326 325 326 329 327 325 325 326 325 322 320 324 330 332 334 337 333 328 327 328 328 327 318 295 271 266 266 264 264 254 218 204 208 216 219 219 217 217 219 221 221 222 222 219 215 214 217 218 220 224 225 221 219 219 218 216 216 218 219
298 303 301 300 303 305 309 316 318 314 314 319 320 320 321 322 322 324 327 329 328 326 325 326 327 326 325 326 326 328 330 329 328 330 330 328 325 320 322 328 329 332 336 334 328 330 333 332 331 328 310 277 265 261 258 257 241 210 205 209 214 217 217 215 216 218 220 220 220 220 218 214 214 219 221 222 224 223 219 217 218 217 216 215 216 218
302 302 298 299 302 304 309 316 314 313 317 320 319 319 321 322 323 324 327 328 327 325 325 326 327 325 325 326 326 328 331 332 333 334 332 331 328 322 321 326 328 330 334 333 328 330 335 334 332 330 319 287 265 256 253 251 230 208 208 212 215 217 217 215 217 219 218 217 217 219 218 214 214 218 221 220 221 220 215 213 215 216 217 217 217 217
303 299 296 298 301 304 310 313 311 313 319 318 316 318 320 322 324 325 325 327 327 326 325 325 325 324 324 325 326 330 334 336 336 335 333 332 330 324 321 325 327 331 336 334 328 328 333 334 332 328 317 290 260 250 251 250 225 208 209 213 215 218 217 215 218 219 216 214 216 218 217 213 212 216 218 217 218 216 212 212 216 217 218 218 217 218
302 298 296 297 300 305 310 311 310 314 318 317 316 317 320 322 325 325 325 326 327 326 324 323 323 323 322 323 326 333 338 338 337 335 334 335 334 331 329 330 329 332 339 339 331 326 327 328 326 321 311 290 265 254 256 251 220 206 209 213 215 217 217 216 219 217 212 212 216 217 215 211 212 216 216 215 217 217 214 216 219 219 219 218 217 217
300 297 296 296 300 306 309 308 309 312 316 316 316 317 319 322 324 325 326 326 327 326 324 323 323 321 321 323 327 334 340 339 337 336 336 337 339 339 338 337 334 337 344 346 341 332 326 322 319 313 303 291 280 272 267 249 213 201 206 211 214 218 220 219 219 214 207 208 212 214 213 211 213 218 217 215 217 217 217 219 221 219 217 216 215 216
298 295 295 297 302 307 308 307 308 310 313 316 317 318 320 322 324 325 326 326 326 325 323 323 322 320 320 324 328 335 340 340 338 338 338 338 342 343 343 342 341 344 350 350 345 338 331 325 320 310 296 290 286 282 268 229 198 194 201 208 215 222 223 220 216 208 202 203 206 209 211 212 217 221 219 216 217 217 217 220 222 219 216 214 213 215
292 291 294 299 303 306 307 307 308 309 311 315 317 320 322 323 323 324 325 325 325 324 322 323 322 317 319 325 329 334 339 340 340 340 339 339 343 345 344 344 345 350 355 350 342 339 337 334 335 323 305 299 293 275 216 179 178 189 201 212 222 226 221 215 210 203 198 200 203 206 210 214 220 225 222 218 218 219 219 223 225 223 220 217 216 217
Height
5788 5785 5783 5781 5778 5775 5770 5767 5765 5761 5759 5757 5755 5754 5752 5748 5751 5751 5746 5742 5736 5734 5735 5731 5728 5730 5732 5733 5730 5727 5727 5723 5715 5710 5703 5694 5691 5689 5687 5684 5681 5677 5673 5670 5665 5660 5657 5655 5651 5648 5647 5645 5644 5644 5644 5642 5640 5639 5639 5639 5638 5638 5637 5637 5637 5639 5642 5644 5645 5647 5648 5649 5651 5652 5652 5652 5653 5655 5655 5656 5657 5657 5658 5659 5660 5662
5783 5781 5778 5775 5773 5769 5765 5762 5760 5756 5753 5750 5748 5747 5746 5741 5741 5745 5740 5736 5731 5724 5724 5723 5718 5724 5729 5726 5724 5721 5719 5715 5707 5699 5693 5690 5684 5678 5677 5676 5673 5670 5666 5663 5659 5654 5650 5645 5643 5640 5638 5637 5636 5635 5635 5635 5634 5632 5631 5631 5631 5631 5630 5630 5630 5630 5633 5636 5639 5641 5642 5642 5644 5646 5646 5646 5648 5649 5650 5651 5651 5652 5654 5655 5656 5658
5779 5776 5773 5770 5768 5764 5761 5757 5754 5751 5747 5743 5741 5739 5738 5735 5731 5736 5737 5731 5725 5716 5711 5710 5707 5715 5724 5721 5718 5716 5711 5705 5700 5688 5678 5680 5677 5668 5667 5666 5664 5662 5657 5654 5651 5647 5643 5637 5634 5631 5628 5627 5626 5625 5625 5625 5626 5624 5623 5622 5622 5622 5623 5623 5621 5622 5624 5627 5630 5633 5635 5635 5636 5640 5641 5640 5641 5642 5643 5645 5646 5647 5649 5650 5651 5654
5775 5772 5768 5765 5762 5759 5756 5752 5747 5745 5742 5737 5734 5730 5730 5728 5722 5721 5725 5725 5724 5716 5701 5691 5691 5703 5713 5713 5714 5712 5705 5696 5692 5680 5665 5667 5667 5658 5656 5655 5652 5652 5648 5644 5642 5638 5635 5630 5625 5621 5618 5616 5615 5614 5615 5615 5614 5614 5613 5613 5614 5614 5614 5615 5613 5613 5615 5617 5619 5622 5625 5627 5629 5632 5634 5634 5634 5635 5637 5639 5641 5642 5644 5646 5647 5649
5771 5767 5764 5761 5757 5754 5751 5747 5741 5738 5738 5733 5727 5723 5719 5719 5714 5709 5708 5708 5712 5717 5704 5679 5673 5690 5702 5700 5701 5702 5696 5689 5683 5670 5657 5657 5656 5648 5646 5644 5640 5638 5635 5633 5631 5628 5625 5620 5615 5611 5607 5604 5603 5603 5603 5603 5602 5602 5603 5602 5603 5604 5605 5606 5605 5605 5605 5606 5608 5611 5615 5618 5621 5624 5627 5628 5629 5630 5632 5635 5638 5640 5642 5643 5644 5646
5766 5761 5758 5755 5751 5748 5744 5740 5735 5730 5730 5727 5723 5718 5712 5709 5706 5702 5697 5692 5691 5702 5705 5682 5659 5669 5690 5693 5688 5686 5683 5678 5671 5660 5652 5649 5646 5640 5638 5634 5629 5625 5621 5618 5617 5615 5612 5609 5604 5600 5597 5594 5592 5591 5591 5591 5592 5591 5591 5591 5592 5594 5596 5596 5596 5597 5596 5596 5598 5600 5605 5610 5614 5617 5621 5624 5626 5627 5629 5632 5635 5637 5638 5640 5641 5643
5760 5755 5751 5748 5744 5741 5737 5733 5728 5723 5721 5719 5716 5713 5708 5702 5696 5692 5688 5682 5679 5681 5691 5685 5656 5646 5667 5681 5676 5671 5669 5666 5659 5649 5644 5641 5634 5631 5628 5622 5619 5614 5610 5606 5602 5600 5598 5594 5591 5586 5584 5583 5580 5580 5579 5579 5580 5580 5579 5580 5580 5582 5585 5587 5586 5587 5589 5589 5589 5591 5596 5601 5605 5609 5613 5617 5620 5622 5624 5626 5629 5631 5633 5635 5637 5639
5754 5750 5745 5742 5738 5735 5731 5726 5722 5717 5713 5710 5707 5704 5701 5694 5688 5685 5679 5674 5673 5670 5676 5682 5661 5637 5647 5664 5662 5657 5654 5650 5645 5637 5631 5627 5619 5615 5611 5605 5601 5597 5594 5592 5588 5585 5582 5578 5576 5572 5569 5569 5569 5569 5569 5568 5567 5567 5567 5568 5570 5571 5574 5576 5576 5577 5580 5582 5583 5584 5587 5592 5597 5601 5604 5609 5612 5614 5616 5618 5621 5624 5627 5629 5632 5635
5747 5744 5741 5736 5734 5730 5724 5719 5714 5710 5705 5701 5697 5694 5692 5687 5682 5679 5674 5669 5667 5664 5666 5671 5658 5635 5636 5652 5649 5642 5641 5632 5625 5619 5611 5606 5598 5592 5588 5582 5579 5576 5573 5572 5570 5569 5567 5564 5561 5559 5556 5555 5556 5557 5557 5557 5557 5556 5556 5556 5558 5560 5562 5565 5566 5567 5570 5573 5577 5578 5579 5583 5588 5592 5595 5599 5603 5606 5609 5611 5614 5617 5620 5623 5626 5629
5741 5737 5734 5730 5727 5724 5718 5713 5706 5700 5695 5691 5688 5686 5686 5682 5678 5675 5668 5663 5661 5661 5661 5659 5650 5628 5624 5641 5638 5623 5621 5614 5604 5601 5593 5587 5583 5578 5573 5567 5564 5562 5558 5556 5554 5554 5552 5551 5548 5546 5545 5543 5542 5543 5544 5545 5546 5546 5547 5547 5548 5550 5552 5555 5556 5557 5560 5564 5568 5571 5574 5576 5579 5583 5586 5590 5594 5597 5601 5604 5607 5610 5613 5617 5620 5624
5735 5731 5728 5726 5723 5719 5714 5708 5700 5694 5689 5684 5679 5676 5677 5676 5673 5671 5665 5657 5652 5657 5661 5654 5643 5622 5608 5622 5625 5610 5605 5600 5592 5588 5581 5575 5572 5566 5560 5555 5552 5549 5546 5543 5541 5541 5540 5539 5537 5534 5533 5532 5530 5530 5530 5531 5533 5535 5537 5537 5538 5540 5543 5546 5547 5548 5551 5554 5558 5563 5568 5571 5572 5574 5578 5582 5586 5590 5594 5597 5600 5604 5607 5611 5615 5618
5731 5727 5726 5724 5720 5714 5709 5705 5697 5691 5684 5678 5672 5666 5663 5664 5662 5661 5661 5654 5644 5647 5655 5649 5636 5622 5608 5608 5609 5602 5596 5589 5581 5575 5567 5562 5557 5553 5548 5543 5541 5537 5532 5530 5528 5529 5529 5528 5527 5524 5522 5522 5519 5518 5518 5518 5519 5521 5525 5526 5527 5530 5533 5536 5538 5539 5541 5545 5549 5554 5559 5563 5565 5566 5570 5574 5578 5582 5586 5590 5594 5597 5601 5605 5609 5612
5727 5721 5720 5720 5716 5707 5700 5698 5692 5689 5683 5672 5664 5657 5649 5644 5640 5641 5644 5642 5636 5636 5647 5644 5624 5615 5614 5606 5596 5591 5585 5577 5570 5562 5555 5550 5543 5541 5538 5531 5529 5527 5522 5521 5519 5518 5518 5517 5516 5513 5511 5510 5507 5505 5505 5504 5506 5509 5514 5516 5516 5519 5523 5526 5529 5529 5531 5536 5541 5544 5548 5554 5557 5558 5562 5566 5570 5573 5578 5583 5586 5590 5594 5598 5602 5606
5722 5715 5711 5710 5708 5702 5695 5688 5682 5682 5679 5667 5656 5648 5640 5632 5622 5622 5626 5625 5624 5627 5641 5645 5623 5609 5611 5603 5589 5583 5577 5568 5562 5555 5547 5542 5536 5532 5528 5521 5517 5516 5512 5510 5509 5507 5506 5504 5502 5501 5500 5497 5494 5493 5491 5489 5491 5496 5503 5505 5505 5508 5512 5514 5518 5519 5521 5527 5531 5534 5538 5544 5548 5550 5554 5557 5562 5566 5570 5575 5579 5583 5587 5591 5595 5600
5716 5711 5707 5703 5697 5693 5689 5682 5674 5673 5671 5664 5656 5644 5636 5630 5617 5612 5613 5609 5605 5607 5622 5631 5619 5609 5607 5596 5582 5573 5568 5560 5553 5548 5540 5535 5532 5527 5523 5518 5510 5505 5503 5499 5496 5494 5493 5491 5490 5488 5487 5484 5481 5479 5477 5476 5476 5479 5488 5493 5493 5497 5500 5503 5507 5509 5512 5518 5521 5525 5529 5533 5539 5543 5546 5550 5554 5558 5562 5568 5572 5575 5580 5584 5588 5593
5712 5708 5705 5703 5695 5684 5681 5676 5666 5664 5662 5657 5654 5643 5633 5629 5617 5608 5607 5606 5596 5588 5598 5606 5604 5607 5605 5594 5582 5567 5558 5552 5541 5535 5530 5525 5524 5519 5513 5508 5500 5493 5490 5486 5483 5481 5479 5478 5475 5474 5472 5470 5468 5465 5464 5464 5463 5464 5473 5479 5481 5485 5488 5492 5497 5499 5502 5508 5513 5516 5519 5524 5530 5534 5538 5542 5546 5550 5555 5560 5564 5568 5573 5577 5581 5585
5705 5706 5701 5699 5696 5683 5675 5671 5661 5655 5652 5648 5646 5639 5629 5625 5615 5601 5596 5599 5591 5576 5579 5584 5582 5588 5588 5578 5572 5557 5543 5539 5528 5519 5518 5515 5511 5504 5495 5489 5482 5477 5474 5472 5470 5466 5463 5461 5459 5457 5456 5455 5454 5452 5452 5452 5451 5452 5458 5465 5469 5472 5476 5480 5486 5490 5492 5499 5505 5508 5511 5516 5521 5526 5530 5534 5538 5543 5548 5552 5556 5560 5564 5569 5574 5578
5692 5701 5700 5693 5692 5685 5673 5666 5659 5652 5646 5638 5635 5632 5624 5618 5614 5605 5592 5586 5580 5567 5566 5571 5568 5569 5565 5552 5546 5538 5528 5524 5516 5510 5506 5501 5494 5486 5480 5475 5468 5463 5462 5460 5458 5453 5448 5444 5441 5440 5440 5440 5440 5438 5438 5439 5440 5440 5444 5451 5456 5460 5464 5468 5475 5481 5483 5488 5495 5498 5502 5507 5512 5517 5521 5526 5530 5534 5539 5544 5548 5552 5556 5561 5566 5571
5679 5686 5695 5689 5683 5682 5675 5663 5654 5651 5646 5633 5625 5623 5616 5607 5602 5604 5598 5582 5567 5555 5551 5556 5559 5561 5557 5542 5529 5521 5515 5508 5501 5497 5493 5486 5480 5473 5468 5464 5458 5454 5452 5449 5446 5441 5435 5431 5427 5426 5425 5426 5425 5424 5425 5427 5427 5428 5431 5437 5443 5447 5452 5457 5463 5470 5473 5477 5484 5489 5492 5497 5503 5508 5512 5516 5521 5525 5530 5536 5540 5544 5549 5553 5558 5563
5673 5670 5682 5687 5679 5672 5670 5662 5652 5648 5645 5634 5625 5617 5609 5602 5592 5591 5594 5580 5558 5544 5537 5533 5537 5546 5545 5533 5519 5508 5503 5496 5487 5482 5478 5473 5470 5464 5457 5453 5449 5446 5443 5440 5437 5431 5426 5421 5417 5414 5413 5414 5413 5413 5415 5415 5415 5417 5419 5424 5429 5435 5442 5446 5452 5460 5463 5466 5473 5479 5483 5487 5492 5498 5502 5507 5512 5516 5523 5529 5533 5537 5541 5546 5550 5555
5670 5663 5666 5678 5678 5669 5661 5655 5648 5643 5638 5630 5624 5615 5605 5600 5590 5584 5589 5584 5561 5543 5532 5519 5516 5530 5533 5519 5509 5500 5493 5490 5482 5473 5469 5465 5461 5457 5451 5445 5441 5439 5436 5433 5429 5425 5420 5415 5410 5407 5405 5404 5404 5404 5405 5405 5404 5406 5409 5413 5417 5423 5430 5435 5440 5449 5454 5456 5462 5470 5474 5477 5482 5487 5492 5497 5502 5508 5515 5520 5524 5529 5533 5537 5542 5547
5663 5657 5655 5662 5668 5664 5657 5650 5643 5637 5630 5622 5615 5608 5600 5593 5584 5573 5571 5573 5565 5549 5535 5516 5504 5515 5521 5507 5499 5494 5486 5482 5477 5467 5462 5459 5453 5448 5444 5439 5436 5433 5430 5426 5422 5418 5414 5410 5405 5401 5399 5398 5397 5396 5397 5397 5396 5398 5401 5403 5406 5412 5419 5424 5429 5437 5444 5447 5452 5459 5464 5468 5472 5477 5482 5487 5493 5499 5505 5511 5516 5521 5525 5529 5534 5539
5655 5650 5648 5652 5656 5653 5647 5643 5638 5630 5624 5618 5611 5602 5596 5590 5582 5568 5552 5549 5550 5543 5533 5516 5500 5506 5513 5501 5492 5488 5480 5475 5470 5463 5457 5451 5445 5440 5436 5433 5431 5427 5424 5420 5416 5413 5410 5405 5401 5397 5394 5392 5391 5390 5390 5390 5389 5391 5394 5396 5398 5403 5409 5413 5418 5426 5433 5437 5442 5449 5453 5457 5463 5468 5473 5478 5485 5490 5496 5504 5509 5512 5517 5522 5526 5531
5649 5643 5639 5640 5645 5646 5642 5636 5631 5624 5615 5609 5606 5602 5596 5589 5581 5568 5553 5543 5535 5529 5522 5506 5492 5498 5505 5497 5489 5483 5474 5466 5463 5458 5451 5443 5437 5433 5428 5426 5424 5421 5419 5415 5411 5408 5406 5401 5397 5394 5390 5388 5386 5384 5383 5383 5384 5385 5387 5390 5392 5396 5401 5404 5408 5415 5422 5427 5433 5439 5443 5448 5454 5459 5464 5470 5477 5482 5488 5496 5501 5505 5510 5514 5517 5523
5640 5637 5632 5627 5626 5629 5633 5632 5628 5624 5616 5604 5598 5597 5594 5588 5577 5565 5558 5548 5533 5525 5520 5502 5485 5487 5492 5487 5481 5475 5464 5457 5454 5451 5445 5436 5429 5426 5422 5419 5417 5415 5414 5410 5405 5402 5400 5397 5393 5389 5386 5383 5381 5379 5378 5377 5377 5378 5380 5383 5386 5389 5392 5395 5399 5406 5412 5418 5425 5430 5434 5440 5444 5449 5456 5462 5469 5475 5480 5487 5492 5497 5502 5506 5509 5514
5634 5631 5628 5622 5615 5609 5610 5614 5611 5607 5606 5598 5589 5588 5588 5583 5571 5558 5550 5541 5525 5515 5513 5502 5482 5475 5479 5477 5470 5464 5455 5449 5446 5442 5437 5430 5424 5421 5417 5412 5410 5409 5407 5404 5400 5396 5393 5391 5387 5384 5381 5379 5376 5373 5371 5370 5370 5372 5373 5376 5379 5381 5384 5387 5391 5397 5403 5409 5416 5422 5426 5431 5436 5441 5448 5454 5461 5467 5472 5478 5484 5490 5495 5499 5502 5506
5629 5627 5625 5620 5614 5606 5599 5599 5596 5589 5586 5581 5573 5573 5576 5572 5562 5551 5541 5531 5516 5501 5500 5500 5484 5466 5466 5466 5458 5453 5448 5441 5437 5432 5426 5423 5419 5415 5411 5407 5405 5403 5400 5396 5393 5389 5386 5384 5381 5378 5376 5374 5371 5367 5365 5363 5363 5365 5367 5370 5372 5374 5376 5379 5383 5388 5395 5401 5408 5414 5418 5423 5428 5434 5440 5446 5452 5458 5463 5469 5476 5483 5488 5493 5496 5499
5623 5620 5620 5616 5612 5605 5597 5593 5590 5585 5579 5571 5561 5559 5561 5558 5552 5546 5536 5525 5511 5493 5486 5491 5482 5463 5457 5456 5449 5444 5439 5433 5429 5422 5416 5415 5412 5407 5405 5402 5400 5398 5393 5390 5386 5383 5380 5377 5374 5372 5369 5367 5365 5362 5359 5358 5357 5358 5360 5364 5367 5367 5369 5372 5375 5381 5387 5394 5400 5406 5411 5415 5420 5427 5432 5438 5443 5448 5455 5461 5468 5476 5481 5486 5491 5494
5618 5614 5610 5609 5608 5602 5592 5585 5582 5578 5574 5566 5555 5550 5548 5545 5542 5537 5530 5520 5507 5491 5482 5480 5473 5460 5453 5449 5444 5439 5432 5426 5421 5415 5410 5408 5405 5402 5400 5397 5394 5391 5387 5383 5379 5377 5374 5370 5367 5364 5362 5361 5359 5356 5354 5352 5351 5352 5354 5357 5360 5361 5363 5365 5368 5373 5379 5386 5393 5398 5403 5408 5412 5418 5425 5430 5435 5441 5448 5454 5461 5469 5475 5480 5486 5490
5611 5609 5602 5598 5600 5599 5589 5580 5575 5570 5564 5558 5550 5544 5539 5536 5533 5528 5522 5514 5501 5490 5485 5476 5464 5458 5454 5447 5439 5433 5429 5423 5417 5410 5406 5404 5400 5398 5395 5390 5387 5384 5381 5378 5373 5370 5367 5364 5361 5357 5354 5353 5352 5351 5349 5347 5347 5347 5348 5351 5353 5355 5357 5359 5361 5365 5371 5379 5387 5391 5396 5401 5405 5410 5417 5424 5429 5435 5442 5448 5454 5461 5468 5474 5480 5485
5601 5601 5597 5589 5590 5594 5587 5577 5573 5567 5558 5549 5543 5538 5533 5529 5526 5522 5516 5508 5494 5484 5483 5474 5458 5452 5452 5444 5433 5427 5423 5418 5412 5406 5401 5399 5396 5392 5387 5383 5380 5376 5374 5371 5367 5363 5359 5356 5353 5350 5347 5345 5345 5344 5343 5341 5342 5342 5344 5346 5348 5349 5351 5353 5355 5358 5364 5372 5380 5385 5389 5394 5398 5403 5410 5417 5423 5429 5435 5441 5446 5453 5461 5467 5473 5478
5593 5591 5590 5583 5581 5587 5583 5574 5570 5567 5559 5549 5539 5534 5530 5525 5521 5517 5512 5503 5488 5478 5474 5464 5450 5443 5440 5434 5424 5419 5416 5413 5408 5402 5397 5394 5392 5387 5380 5376 5373 5370 5366 5362 5359 5355 5351 5347 5344 5341 5339 5338 5337 5337 5337 5335 5335 5338 5339 5341 5343 5344 5345 5347 5349 5352 5357 5365 5373 5378 5383 5387 5391 5397 5404 5411 5417 5423 5428 5434 5439 5445 5453 5460 5466 5471
5587 5584 5582 5576 5572 5576 5576 5569 5564 5561 5556 5548 5538 5530 5525 5520 5515 5512 5509 5500 5489 5479 5468 5454 5443 5438 5432 5425 5416 5410 5409 5407 5403 5398 5393 5389 5385 5381 5377 5372 5367 5364 5360 5355 5351 5348 5343 5339 5336 5333 5332 5331 5330 5329 5330 5328 5328 5331 5334 5335 5337 5339 5340 5342 5344 5346 5351 5358 5366 5372 5377 5381 5385 5391 5399 5405 5410 5415 5420 5425 5431 5438 5446 5454 5460 5464
5578 5576 5574 5568 5562 5563 5565 5562 5557 5554 5549 5541 5534 5524 5515 5510 5506 5502 5499 5493 5483 5477 5466 5452 5443 5438 5431 5422 5412 5404 5402 5401 5399 5396 5393 5386 5378 5372 5370 5367 5362 5357 5354 5350 5345 5341 5338 5333 5329 5327 5324 5323 5323 5322 5322 5321 5320 5322 5326 5328 5330 5332 5334 5336 5338 5340 5346 5352 5359 5366 5372 5375 5379 5385 5392 5399 5403 5407 5412 5418 5425 5432 5439 5446 5452 5457
5569 5565 5564 5560 5553 5550 5552 5551 5545 5544 5542 5535 5527 5518 5507 5503 5500 5494 5492 5489 5479 5468 5459 5449 5441 5436 5428 5420 5412 5404 5399 5397 5396 5395 5392 5384 5374 5366 5362 5359 5355 5350 5345 5342 5338 5333 5331 5326 5322 5320 5318 5316 5315 5314 5314 5313 5312 5313 5317 5320 5322 5324 5327 5329 5332 5335 5341 5347 5354 5361 5366 5370 5374 5379 5386 5392 5397 5401 5407 5413 5420 5425 5431 5438 5446 5452
5562 5557 5555 5553 5546 5540 5541 5541 5535 5532 5534 5531 5522 5511 5499 5496 5494 5484 5481 5485 5479 5463 5451 5442 5435 5430 5424 5418 5411 5403 5396 5393 5393 5395 5391 5380 5371 5364 5357 5351 5347 5343 5338 5334 5329 5325 5322 5318 5314 5312 5309 5309 5308 5306 5305 5305 5304 5305 5310 5314 5315 5318 5320 5323 5326 5331 5336 5342 5349 5355 5361 5365 5369 5374 5379 5386 5391 5397 5403 5409 5415 5419 5425 5432 5440 5446
5556 5551 5548 5545 5540 5534 5531 5531 5526 5523 5525 5525 5516 5503 5491 5486 5484 5473 5466 5472 5471 5458 5445 5437 5430 5425 5420 5414 5409 5402 5393 5387 5387 5390 5388 5377 5366 5359 5353 5346 5340 5335 5331 5327 5323 5319 5315 5310 5307 5304 5301 5301 5300 5298 5297 5297 5296 5297 5303 5309 5311 5312 5315 5317 5321 5327 5332 5337 5344 5351 5356 5360 5364 5368 5373 5379 5386 5393 5399 5405 5409 5414 5420 5428 5435 5440
5548 5546 5543 5537 5534 5529 5522 5518 5515 5511 5514 5515 5507 5496 5486 5481 5478 5468 5459 5461 5462 5453 5443 5435 5427 5421 5414 5408 5405 5398 5388 5380 5379 5380 5379 5372 5364 5356 5348 5344 5337 5328 5322 5317 5313 5312 5309 5304 5299 5296 5293 5292 5292 5290 5289 5289 5288 5289 5295 5303 5306 5308 5310 5313 5317 5323 5327 5332 5339 5345 5351 5355 5360 5363 5367 5374 5381 5388 5394 5399 5403 5408 5416 5424 5431 5437
5541 5540 5539 5534 5529 5525 5517 5512 5508 5505 5504 5502 5497 5490 5483 5476 5472 5463 5454 5455 5455 5448 5441 5433 5424 5418 5410 5403 5399 5392 5381 5370 5368 5370 5369 5363 5359 5351 5342 5337 5333 5326 5318 5310 5302 5298 5298 5295 5291 5289 5286 5284 5284 5283 5282 5282 5281 5282 5287 5295 5300 5302 5305 5308 5312 5317 5322 5327 5334 5340 5346 5351 5355 5359 5363 5369 5376 5382 5387 5393 5398 5404 5411 5419 5427 5433
5536 5533 5532 5528 5523 5520 5513 5507 5506 5504 5499 5491 5486 5483 5476 5467 5462 5454 5444 5443 5444 5438 5432 5426 5419 5411 5405 5399 5394 5388 5379 5365 5356 5357 5357 5352 5348 5344 5335 5327 5323 5317 5311 5304 5295 5288 5285 5282 5279 5278 5278 5276 5275 5275 5275 5275 5275 5275 5280 5287 5294 5297 5300 5303 5307 5312 5317 5322 5329 5335 5340 5346 5351 5355 5359 5364 5370 5376 5382 5387 5393 5400 5407 5414 5421 5427
5531 5528 5528 5523 5518 5515 5509 5502 5501 5504 5498 5485 5478 5477 5468 5457 5453 5450 5441 5434 5431 5426 5423 5420 5414 5406 5400 5395 5389 5382 5377 5368 5356 5349 5348 5343 5338 5335 5330 5323 5316 5309 5300 5292 5284 5276 5272 5270 5266 5264 5266 5267 5266 5267 5268 5268 5268 5269 5274 5281 5288 5292 5294 5297 5302 5307 5312 5318 5324 5330 5335 5341 5346 5351 5355 5359 5365 5371 5377 5383 5389 5397 5404 5409 5415 5421
5524 5523 5524 5519 5513 5510 5505 5498 5496 5498 5494 5481 5473 5473 5467 5453 5446 5445 5440 5432 5425 5419 5415 5414 5411 5403 5395 5392 5387 5379 5372 5367 5358 5348 5343 5337 5330 5325 5322 5316 5310 5304 5295 5284 5275 5267 5262 5260 5257 5254 5254 5256 5257 5259 5260 5261 5262 5264 5269 5276 5283 5285 5287 5291 5296 5302 5307 5313 5320 5326 5331 5336 5342 5348 5352 5356 5360 5366 5373 5379 5385 5392 5399 5405 5410 5416
5517 5518 5519 5515 5509 5505 5501 5497 5492 5490 5486 5478 5471 5469 5465 5453 5441 5436 5433 5428 5422 5415 5410 5408 5408 5401 5391 5386 5384 5377 5370 5364 5356 5346 5339 5333 5325 5319 5315 5307 5299 5294 5287 5277 5269 5263 5257 5253 5249 5246 5245 5247 5248 5251 5253 5254 5257 5259 5264 5272 5278 5280 5283 5287 5292 5296 5302 5310 5317 5322 5327 5333 5339 5345 5350 5353 5357 5362 5369 5375 5381 5387 5394 5400 5406 5412
5513 5512 5511 5509 5505 5500 5495 5494 5491 5484 5479 5475 5468 5463 5458 5448 5438 5432 5428 5422 5416 5410 5405 5403 5403 5398 5388 5380 5377 5371 5364 5359 5352 5343 5335 5330 5323 5315 5310 5303 5294 5287 5279 5270 5264 5260 5254 5248 5243 5240 5238 5239 5241 5244 5247 5249 5252 5256 5262 5268 5272 5275 5278 5282 5286 5292 5299 5307 5313 5319 5324 5330 5337 5342 5347 5351 5354 5359 5365 5372 5377 5383 5389 5396 5402 5407
5510 5507 5501 5499 5501 5496 5489 5489 5487 5479 5475 5471 5465 5458 5452 5444 5436 5431 5426 5420 5413 5407 5402 5397 5396 5393 5386 5378 5373 5367 5359 5352 5346 5338 5329 5323 5318 5310 5304 5297 5289 5281 5273 5265 5259 5256 5251 5245 5240 5236 5234 5234 5236 5240 5243 5245 5248 5253 5258 5262 5265 5268 5273 5277 5282 5288 5296 5304 5310 5316 5322 5328 5335 5341 5345 5348 5352 5357 5362 5368 5374 5379 5385 5391 5397 5403
5506 5501 5493 5491 5493 5490 5487 5487 5481 5473 5469 5465 5459 5454 5449 5441 5434 5427 5422 5419 5413 5405 5400 5394 5389 5386 5381 5374 5369 5364 5356 5348 5342 5334 5325 5317 5311 5305 5298 5292 5286 5278 5270 5262 5257 5254 5250 5245 5240 5236 5233 5232 5234 5237 5240 5242 5245 5249 5254 5258 5263 5268 5273 5277 5281 5287 5294 5302 5308 5313 5320 5327 5334 5339 5343 5346 5350 5355 5360 5366 5371 5377 5382 5387 5393 5399
5499 5494 5487 5485 5485 5481 5481 5482 5477 5470 5467 5461 5454 5452 5448 5442 5435 5425 5419 5416 5411 5403 5397 5393 5388 5383 5378 5371 5365 5359 5351 5344 5337 5330 5321 5313 5306 5299 5293 5287 5282 5275 5267 5258 5252 5250 5247 5244 5241 5237 5234 5233 5234 5236 5239 5241 5244 5247 5251 5256 5262 5267 5273 5277 5281 5287 5294 5301 5306 5312 5318 5325 5332 5338 5341 5344 5348 5353 5358 5364 5369 5374 5379 5384 5389 5395
5491 5486 5479 5476 5477 5476 5475 5473 5469 5467 5466 5459 5448 5443 5441 5439 5435 5428 5419 5413 5408 5401 5394 5389 5387 5383 5377 5370 5364 5356 5348 5340 5332 5324 5317 5310 5302 5294 5287 5282 5277 5271 5263 5255 5249 5245 5243 5242 5240 5237 5235 5234 5235 5236 5238 5240 5243 5247 5252 5257 5262 5267 5272 5277 5281 5287 5294 5300 5305 5311 5316 5323 5330 5336 5339 5343 5347 5352 5357 5362 5366 5371 5375 5380 5385 5391
5482 5479 5472 5466 5469 5472 5469 5465 5460 5460 5462 5459 5449 5440 5435 5432 5429 5425 5419 5411 5406 5400 5393 5386 5382 5380 5376 5369 5362 5355 5348 5340 5330 5320 5312 5306 5299 5291 5283 5278 5272 5266 5258 5252 5246 5241 5238 5237 5237 5235 5235 5235 5235 5237 5238 5239 5242 5246 5252 5257 5262 5267 5272 5276 5280 5287 5294 5299 5304 5309 5314 5320 5327 5333 5337 5341 5345 5350 5355 5359 5363 5367 5371 5375 5381 5386
5474 5470 5465 5460 5462 5465 5463 5457 5453 5451 5451 5452 5448 5440 5434 5428 5423 5418 5414 5408 5402 5396 5392 5386 5380 5377 5374 5368 5359 5352 5347 5340 5331 5321 5310 5302 5296 5288 5280 5276 5271 5263 5255 5249 5244 5239 5234 5232 5232 5232 5232 5233 5234 5235 5237 5239 5242 5247 5252 5257 5262 5267 5271 5276 5280 5286 5292 5297 5301 5306 5311 5317 5324 5329 5334 5338 5342 5347 5352 5356 5359 5362 5366 5370 5376 5381
5468 5463 5460 5457 5456 5457 5455 5451 5447 5443 5441 5441 5439 5434 5428 5424 5418 5413 5408 5404 5398 5392 5387 5383 5379 5375 5373 5367 5358 5349 5344 5339 5332 5324 5313 5303 5295 5287 5279 5273 5268 5261 5254 5248 5244 5238 5232 5229 5228 5229 5230 5231 5233 5234 5237 5241 5245 5250 5254 5258 5263 5267 5271 5275 5279 5284 5289 5293 5298 5303 5308 5314 5320 5325 5330 5334 5339 5343 5348 5352 5356 5359 5362 5366 5371 5375